Flag for U.S.A. Weather past 2 weeks in Roanoke, Virginia, U.S.A.

Now
67 °F

Clear.


Feels Like: 67 °F
Forecast: 67 / 88 °F
Wind: 7 mph from Northeast

Location: Roanoke Regional Airport

Current Time: Sep 3, 2015 at 5:46:06 AM

Latest Report: Sep 3, 2015 at 4:54 AM


Visibility: 10 mi

Pressure: 29.98 "Hg

Humidity: 90%

Dew point: 64 °F

Location of RoanokeLocation

Historic Weather in Roanoke — Graph

°F

Roanoke temperature yesterday

Maximum temperature yesterday: 91 °F (at 1:54 PM)
Minimum temperature yesterday: 69 °F (at 3:54 AM)
Average temperature yesterday: 78 °F

Past Weeks' High & Low Weather Summary

 TemperatureHumidityPressure
High91 °F (Sep 1, 2:54 PM)100% (Aug 20, 4:54 AM)30.24 "Hg (Aug 20, 4:54 AM)
Low57 °F (Aug 26, 6:54 AM)33% (Aug 25, 5:54 PM)29.86 "Hg (Aug 24, 4:54 PM)
Average74 °F69%30.06 "Hg
* Reported Aug 19 3:54 AM — Sep 3 3:54 AM, Roanoke, Weather by CustomWeather, © 2015

Note: Actual official high and low records may vary slightly from our data, if they occured in-between our weather recording intervals... More about our weather records

Advertising

Roanoke weather history for previous 24 hours

 ConditionsComfort  
Time TempWeatherWind HumidityBarometerVisibility
3:54 AM
Thu, Sep 3
67 °FClear.3 mph90%29.98 "Hg10 mi
2:54 AM68 °FClear.3 mph87%29.98 "Hg10 mi
1:54 AM68 °FClear.5 mph87%30.00 "Hg10 mi
12:54 AM70 °FPassing clouds.No wind81%30.02 "Hg10 mi
11:54 PM
Wed, Sep 2
72 °FPassing clouds.3 mph76%30.03 "Hg10 mi
10:54 PM70 °FClear.3 mph81%30.02 "Hg10 mi
9:54 PM74 °FClear.5 mph71%30.02 "Hg10 mi
8:54 PM77 °FClear.No wind62%30.00 "Hg10 mi
7:54 PM78 °FPassing clouds.8 mph58%29.99 "Hg10 mi
6:54 PM86 °FPassing clouds.7 mph39%29.98 "Hg10 mi
5:54 PM86 °FBroken clouds.9 mph40%29.98 "Hg10 mi
4:54 PM90 °FBroken clouds.14 mph38%29.98 "Hg10 mi
3:54 PM91 °FScattered clouds.7 mph38%29.98 "Hg10 mi
2:54 PM90 °FScattered clouds.8 mph38%30.02 "Hg10 mi
1:54 PM91 °FScattered clouds.3 mph36%30.04 "Hg10 mi
12:54 PM89 °FScattered clouds.8 mph39%30.06 "Hg10 mi
11:54 AM86 °FPassing clouds.6 mph49%30.09 "Hg10 mi
10:54 AM84 °FSunny.3 mph57%30.10 "Hg10 mi
9:54 AM80 °FPassing clouds.5 mph64%30.11 "Hg10 mi
8:54 AM74 °FPassing clouds.6 mph79%30.11 "Hg8 mi
7:54 AM70 °FPassing clouds.5 mph87%30.12 "Hg10 mi
6:54 AM70 °FPassing clouds.3 mph87%30.11 "Hg10 mi
5:54 AM70 °FPassing clouds.5 mph87%30.09 "Hg10 mi
Weather by CustomWeather, © 2015

See weather overviewHow to use our weather pages